Tracking 17857 objects as of 29-September-2016
HD Live streaming from Space Station
objects crossing your sky now

RIGIDSPHERE 2 (LCS 4)

Track RIGIDSPHERE 2 (LCS 4) now!
10-day predictions
RIGIDSPHERE 2 (LCS 4) is classified as:


NORAD ID: 5398
Int'l Code: 1971-067E
Perigee: 739.9 km
Apogee: 834.6 km
Inclination: 87.6 °
Period: 100.5 minutes
Semi major axis: 7158 km
RCS: 0.9311 m2 (medium)
Launch date: August 7, 1971
Source: United States (US)
Launch site: AIR FORCE WESTERN TEST RANGE (AFWTR)
Your satellite tracking list
Your tracking list is empty





NASA's NSSDC Master Catalog

Two Line Element Set (TLE):
1 05398U 71067E   16272.05761508  .00000283  00000-0  93227-4 0  9996
2 05398  87.6223 238.5144 0066098  70.8398 289.9938 14.33483341365237
Source of the keplerian elements: AFSPC

N2YO: 622